Temp
58 57 57 56 56 55 54 54 54 54 53 53 53 52 52 51 51 50 50 49 48 47 47 46 46 45 45 44 44 43 43 43 43 44 44 45 44 44 43 43 42 41 41 41 41 41 41 41 40 40 39 39 39 38 38 38 38 38 38 38 38 38 38 38 37 37 37 37 37
59 58 58 57 56 55 54 54 53 53 53 53 52 52 52 51 50 50 50 49 48 47 47 46 46 46 45 44 44 43 43 43 43 43 43 44 43 43 42 42 41 41 40 40 41 41 41 41 40 39 38 38 38 38 37 37 37 37 38 38 38 38 37 37 37 37 37 37 37
60 59 58 57 56 55 54 53 53 53 53 52 52 52 52 51 50 50 49 49 49 48 47 46 46 46 45 44 44 43 42 42 42 42 42 43 43 42 42 41 41 40 40 40 40 40 40 40 39 39 38 38 37 37 37 37 37 37 37 37 37 37 36 36 36 37 37 37 37
60 59 58 57 57 56 55 54 53 53 53 52 52 52 52 52 51 50 49 49 49 48 47 47 46 46 45 44 43 43 42 42 42 41 41 42 42 42 42 41 40 40 40 40 40 40 40 40 39 39 38 37 36 36 36 37 37 36 36 37 37 36 35 35 36 37 37 36 37
60 59 58 57 57 57 56 55 54 54 53 53 52 52 52 51 51 50 50 49 49 48 48 48 47 46 46 45 43 42 42 41 42 41 41 41 42 42 42 41 40 40 40 39 39 39 39 40 39 38 38 37 36 36 36 36 36 35 35 36 36 35 35 35 36 36 36 36 36
60 59 59 58 57 57 56 56 55 54 54 53 52 51 51 51 50 50 49 48 49 49 49 48 47 47 46 45 44 42 41 41 41 40 40 40 41 41 41 41 40 40 39 39 39 39 39 39 38 38 37 36 35 35 36 36 35 34 34 34 34 35 35 35 36 36 36 36 36
60 59 59 58 57 57 56 56 55 55 54 53 52 52 51 51 50 50 49 49 49 48 48 47 47 46 46 45 44 43 42 40 40 40 40 40 40 40 40 40 40 40 39 39 39 39 38 38 37 37 36 36 35 35 35 35 34 33 33 33 33 34 34 34 35 35 35 35 35
60 60 59 58 57 56 56 55 55 54 54 53 52 52 52 51 51 50 50 49 48 48 47 46 46 45 45 44 44 43 42 41 40 40 39 39 40 40 40 40 40 39 39 39 38 38 38 37 37 36 35 35 34 34 34 34 33 33 32 32 33 33 34 33 33 34 34 34 34
59 59 59 58 57 56 55 54 54 54 53 53 52 52 52 52 51 50 50 49 48 48 47 46 45 45 45 44 44 43 42 42 41 40 40 39 39 39 40 40 39 39 39 38 38 37 37 36 36 35 35 34 34 33 33 33 32 32 32 32 32 33 34 34 34 34 34 34 32
58 58 58 57 57 56 55 54 53 53 53 52 53 52 52 52 51 50 49 48 48 48 47 46 46 45 44 44 43 43 42 42 42 41 40 40 40 39 39 39 39 39 38 38 37 37 36 36 35 34 34 34 33 33 32 32 32 31 31 32 32 32 33 34 34 34 33 33 32
58 58 57 57 57 56 54 54 53 52 52 52 52 52 52 51 51 50 49 48 47 47 47 46 46 45 44 43 43 42 42 41 41 41 41 40 40 39 39 38 38 38 37 37 36 36 35 35 34 34 33 33 33 32 32 31 31 31 30 31 32 32 32 33 33 33 33 32 32
58 58 57 56 56 55 54 53 52 52 51 51 51 51 51 51 50 49 49 48 46 46 46 46 46 45 44 43 42 42 41 41 41 41 40 40 39 39 38 38 38 37 36 35 35 35 34 34 33 32 32 32 32 31 31 31 30 30 30 30 31 31 31 32 32 32 32 33 32
58 57 57 56 55 54 53 52 51 51 51 51 50 50 50 50 50 49 48 47 46 45 45 45 44 44 43 43 42 42 41 40 41 41 40 39 39 38 38 38 37 36 35 35 35 34 34 33 32 32 31 31 31 30 30 30 30 30 30 30 30 30 31 31 31 32 32 32 31
57 57 56 55 55 53 52 51 50 50 50 50 50 49 49 49 50 49 48 47 46 45 45 45 44 43 43 42 42 42 41 41 41 40 40 39 38 38 37 36 36 35 34 34 34 34 33 33 32 31 30 30 30 30 30 30 30 29 29 29 30 30 30 30 31 31 31 31 31
57 56 55 55 54 53 52 50 50 50 49 49 49 49 49 49 49 49 48 47 46 46 45 45 44 43 43 42 42 42 41 41 40 40 39 38 37 37 36 36 36 35 34 34 34 34 33 32 32 31 30 30 30 30 30 30 30 30 29 29 29 30 30 30 30 30 30 30 30
56 56 55 54 53 52 51 50 49 49 49 48 48 48 48 48 48 48 47 46 46 45 45 44 43 43 42 42 42 42 41 41 40 39 38 37 37 36 36 36 35 35 34 33 33 33 33 32 32 31 30 30 30 30 30 30 30 29 29 29 29 29 30 30 30 30 30 30 30
55 55 54 54 53 52 51 50 49 48 48 48 48 48 48 48 48 47 47 46 45 45 44 43 43 42 41 41 41 41 40 40 39 39 38 37 37 36 36 35 35 35 34 32 32 32 32 32 32 31 31 30 30 30 30 29 29 29 29 29 29 29 30 30 31 31 31 31 30
55 54 53 53 52 51 50 49 48 48 48 47 47 47 47 47 47 47 46 46 45 44 43 43 42 41 41 40 40 40 39 39 38 38 37 37 36 36 35 35 35 34 33 32 32 32 32 32 31 31 31 30 30 30 29 29 29 29 29 29 29 30 30 31 31 31 31 30 30
55 54 53 52 51 50 50 49 48 48 47 47 46 46 46 46 46 46 45 45 45 44 43 42 42 41 41 40 40 39 39 38 38 37 37 36 36 35 35 35 35 34 33 31 32 32 32 32 31 31 31 30 29 29 29 29 29 29 29 29 29 29 30 30 30 31 30 30 30
55 54 53 52 51 50 49 49 48 48 47 47 46 46 45 45 45 45 45 44 44 43 43 42 42 41 41 40 40 39 39 38 38 37 36 36 35 35 35 35 34 34 33 31 31 31 31 31 31 31 30 29 29 29 29 29 29 29 29 29 29 29 29 29 29 30 30 29 30
54 54 53 52 52 51 50 49 49 48 47 47 46 46 45 45 45 44 44 44 44 43 42 42 41 41 40 40 39 39 38 39 38 37 36 36 35 35 35 35 34 34 33 31 31 31 31 31 31 30 29 29 29 28 28 28 28 29 29 29 29 29 29 29 29 29 29 29 29
54 53 53 52 52 51 51 50 49 48 48 47 46 46 45 45 44 44 44 44 43 43 42 42 41 41 40 39 39 38 38 38 38 37 36 36 35 35 35 35 34 33 32 30 30 30 30 30 30 29 29 29 28 28 28 28 28 29 29 29 29 29 29 29 28 28 28 28 29
53 53 53 52 52 51 51 50 49 49 48 47 46 46 45 45 45 44 44 44 43 43 42 42 42 41 40 39 39 38 38 37 37 37 36 35 35 34 34 34 33 33 32 30 30 30 29 29 29 29 29 28 28 28 28 28 29 29 29 29 29 28 28 28 28 28 28 28 28
52 52 52 52 51 50 50 49 49 48 48 47 46 46 45 45 44 44 44 43 43 42 41 41 41 41 40 39 39 38 37 36 36 36 36 35 35 34 34 34 33 32 32 30 30 30 30 29 29 29 29 28 28 28 28 28 29 29 29 28 28 28 27 27 27 27 27 27 28
50 51 51 50 50 50 49 49 48 48 47 47 46 46 45 45 44 44 43 43 42 41 41 41 40 40 40 39 39 38 37 36 36 35 35 34 34 34 34 33 33 32 31 31 33 34 34 32 31 29 29 28 28 29 29 29 29 29 28 28 28 27 27 27 27 27 27 27 27
49 49 49 49 49 49 48 48 48 47 47 47 46 46 45 45 44 44 43 42 42 41 41 40 40 40 40 39 38 38 37 36 36 35 34 34 34 33 33 33 32 31 31 32 35 36 36 36 35 32 30 28 29 29 29 29 29 28 28 28 28 27 27 27 27 27 27 27 27
48 47 47 47 47 47 47 47 47 47 47 46 46 45 45 45 44 43 42 42 41 41 40 40 39 40 40 39 38 37 36 36 35 34 34 33 33 33 33 33 32 30 30 33 36 37 37 37 37 35 33 29 29 29 29 29 28 28 28 28 28 27 27 27 27 27 28 27 27
46 46 46 46 45 45 45 46 46 46 46 46 46 45 44 44 43 43 42 41 41 40 40 39 39 39 39 38 37 36 35 35 35 34 34 33 33 33 33 33 31 31 32 35 36 37 38 38 38 37 35 31 30 29 29 29 28 28 28 28 28 28 27 27 27 28 28 28 28
44 44 44 44 44 44 44 44 45 45 46 46 46 45 44 43 43 42 42 41 41 40 39 39 39 38 37 36 36 35 35 34 34 34 34 33 33 33 33 33 32 33 34 36 37 38 38 38 39 38 37 35 31 30 29 29 29 29 28 28 28 28 28 28 28 28 29 29 29
42 42 42 42 42 43 43 43 44 45 46 46 45 45 44 43 42 42 41 40 40 39 39 39 38 38 37 36 36 35 35 35 34 34 34 33 33 33 33 34 33 33 34 36 37 38 38 39 39 39 39 37 33 31 30 30 30 29 29 29 29 28 28 28 28 29 29 30 30
40 41 41 41 42 42 42 43 44 45 45 45 45 44 43 42 42 41 41 40 40 40 40 39 38 37 37 37 36 36 35 35 35 34 34 33 33 33 33 34 33 33 34 36 37 38 38 39 39 39 39 39 35 32 30 30 30 30 29 29 29 29 29 29 29 29 30 30 30
41 41 41 41 41 41 42 43 44 44 45 45 44 44 43 42 42 41 41 41 40 40 39 38 37 37 36 36 36 36 36 35 35 34 34 34 33 33 33 34 33 33 34 37 37 38 38 39 39 39 40 40 37 33 31 30 30 30 30 30 29 29 29 29 29 30 30 31 31
43 42 41 41 41 41 42 43 44 44 44 44 44 43 42 42 42 41 41 41 40 39 38 38 37 36 36 36 36 36 36 35 35 35 35 34 34 34 34 34 34 34 35 37 37 38 38 39 39 40 40 40 38 34 32 31 30 30 30 30 30 30 30 30 30 31 31 31 32
44 43 42 42 42 42 43 43 44 44 44 43 43 42 42 41 41 40 40 40 40 39 39 38 38 37 37 37 36 36 36 36 36 35 35 35 34 34 34 34 34 35 36 37 38 38 39 39 39 40 40 41 38 35 33 31 31 31 31 31 31 31 31 30 30 31 31 32 33
45 44 43 43 43 43 43 44 44 44 43 42 42 41 41 41 40 40 40 40 40 39 39 38 38 38 38 38 37 37 36 36 36 36 35 35 35 34 34 34 34 36 37 37 38 38 39 39 39 40 40 40 38 35 33 32 31 31 32 32 32 32 32 31 31 31 32 33 34
48 47 46 45 45 45 45 44 44 44 43 42 41 41 41 41 41 41 41 41 40 39 39 38 38 38 38 37 37 37 37 36 36 36 36 36 35 34 34 34 35 36 37 38 38 38 39 39 39 40 40 39 37 35 34 33 32 32 32 33 33 33 33 33 33 33 33 33 34
51 50 49 48 47 47 46 45 45 44 43 42 41 41 40 40 41 41 41 41 39 39 38 38 38 37 37 37 37 37 37 37 37 37 37 36 36 35 34 34 35 36 37 38 38 38 39 39 40 40 39 38 36 36 35 34 34 33 34 34 34 34 34 34 34 34 34 33 34
51 50 50 49 48 48 47 46 45 44 43 43 42 42 42 41 41 41 41 40 39 39 38 38 38 38 37 37 37 37 37 37 37 37 37 37 36 35 35 34 35 35 36 38 38 38 39 39 39 40 39 37 36 36 35 35 34 34 35 35 35 35 35 36 36 36 35 34 35
52 51 50 49 49 48 48 47 46 45 44 44 43 43 43 42 41 41 41 41 40 39 39 38 38 38 38 38 38 37 37 38 38 38 37 37 37 36 36 35 35 35 36 37 38 38 39 39 39 40 39 38 36 36 36 35 35 35 35 36 35 36 36 37 37 37 36 35 37
52 52 51 50 49 49 48 48 47 47 46 45 44 43 43 43 42 42 42 41 41 40 39 39 39 39 39 39 38 37 37 37 38 38 38 37 38 37 37 36 35 35 36 37 38 38 38 39 39 40 40 38 36 36 36 36 35 35 36 36 35 36 36 37 37 37 37 36 38
52 52 51 50 50 49 49 48 48 47 47 46 45 44 44 44 43 43 42 42 41 40 40 39 39 39 39 39 38 38 37 37 37 38 38 38 38 38 37 36 36 35 36 37 37 38 38 39 39 40 40 38 37 36 36 36 35 35 35 35 35 36 36 36 37 37 37 37 37
MSLP
1011.54 1011.74 1011.90 1012.06 1012.14 1012.26 1012.34 1012.42 1012.54 1012.74 1012.86 1012.98 1013.10 1013.18 1013.30 1013.46 1013.62 1013.74 1013.90 1014.10 1014.26 1014.46 1014.70 1014.90 1015.10 1015.34 1015.58 1015.82 1015.98 1016.14 1016.26 1016.42 1016.54 1016.66 1016.74 1016.86 1016.98 1017.18 1017.42 1017.62 1017.86 1018.10 1018.26 1018.46 1018.62 1018.82 1018.98 1019.10 1019.22 1019.38 1019.50 1019.58 1019.70 1019.82 1019.98 1020.10 1020.26 1020.38 1020.54 1020.70 1020.94 1021.10 1021.26 1021.42 1021.62 1021.74 1021.82 1021.82 1021.90
1011.26 1011.46 1011.62 1011.74 1011.90 1012.02 1012.14 1012.26 1012.38 1012.54 1012.66 1012.82 1012.90 1012.98 1013.10 1013.26 1013.38 1013.50 1013.70 1013.82 1013.98 1014.18 1014.42 1014.62 1014.78 1014.98 1015.22 1015.42 1015.62 1015.82 1016.02 1016.18 1016.30 1016.42 1016.54 1016.62 1016.74 1016.94 1017.14 1017.42 1017.62 1017.86 1018.10 1018.26 1018.42 1018.58 1018.74 1018.86 1018.98 1019.18 1019.30 1019.42 1019.54 1019.70 1019.82 1019.98 1020.14 1020.26 1020.42 1020.54 1020.78 1020.94 1021.10 1021.30 1021.46 1021.58 1021.66 1021.70 1021.74
1011.06 1011.22 1011.34 1011.54 1011.66 1011.78 1011.90 1012.02 1012.18 1012.34 1012.46 1012.58 1012.70 1012.82 1012.94 1013.02 1013.14 1013.30 1013.46 1013.62 1013.78 1013.98 1014.18 1014.38 1014.54 1014.70 1014.90 1015.10 1015.30 1015.54 1015.74 1015.98 1016.14 1016.26 1016.34 1016.38 1016.54 1016.70 1016.90 1017.14 1017.38 1017.62 1017.82 1018.06 1018.22 1018.34 1018.42 1018.62 1018.78 1018.94 1019.06 1019.18 1019.34 1019.50 1019.62 1019.82 1019.98 1020.14 1020.26 1020.42 1020.58 1020.82 1021.02 1021.22 1021.38 1021.46 1021.50 1021.54 1021.54
1010.86 1010.98 1011.10 1011.22 1011.34 1011.46 1011.62 1011.74 1011.94 1012.14 1012.26 1012.42 1012.58 1012.70 1012.82 1012.86 1012.98 1013.14 1013.30 1013.42 1013.58 1013.74 1013.90 1014.10 1014.26 1014.46 1014.70 1014.86 1015.10 1015.26 1015.50 1015.70 1015.94 1016.14 1016.22 1016.26 1016.34 1016.46 1016.66 1016.86 1017.10 1017.34 1017.54 1017.78 1017.94 1018.06 1018.18 1018.34 1018.54 1018.70 1018.82 1018.90 1019.10 1019.22 1019.38 1019.54 1019.78 1019.98 1020.14 1020.26 1020.50 1020.70 1020.94 1021.10 1021.18 1021.22 1021.26 1021.26 1021.34
1010.66 1010.74 1010.86 1010.98 1011.10 1011.22 1011.38 1011.54 1011.74 1011.94 1012.14 1012.30 1012.46 1012.54 1012.66 1012.74 1012.86 1012.98 1013.18 1013.30 1013.42 1013.54 1013.70 1013.86 1014.06 1014.26 1014.42 1014.66 1014.82 1015.02 1015.22 1015.42 1015.66 1015.82 1016.02 1016.14 1016.22 1016.26 1016.42 1016.58 1016.78 1016.98 1017.22 1017.42 1017.62 1017.82 1017.98 1018.10 1018.26 1018.42 1018.50 1018.66 1018.82 1018.98 1019.10 1019.34 1019.58 1019.78 1019.98 1020.14 1020.38 1020.62 1020.82 1020.98 1020.98 1020.98 1020.98 1021.02 1021.10
1010.46 1010.54 1010.66 1010.82 1010.94 1011.10 1011.22 1011.38 1011.54 1011.74 1011.94 1012.14 1012.26 1012.38 1012.50 1012.62 1012.70 1012.86 1012.98 1013.10 1013.18 1013.26 1013.46 1013.66 1013.82 1013.98 1014.18 1014.38 1014.54 1014.74 1014.98 1015.10 1015.30 1015.50 1015.70 1015.90 1016.06 1016.14 1016.22 1016.30 1016.46 1016.70 1016.94 1017.14 1017.30 1017.50 1017.70 1017.82 1017.98 1018.14 1018.26 1018.42 1018.62 1018.78 1018.94 1019.14 1019.42 1019.62 1019.82 1020.02 1020.22 1020.42 1020.58 1020.70 1020.70 1020.70 1020.70 1020.78 1020.82
1010.26 1010.42 1010.54 1010.66 1010.78 1010.94 1011.06 1011.26 1011.42 1011.58 1011.74 1011.86 1011.98 1012.10 1012.18 1012.30 1012.42 1012.54 1012.70 1012.82 1012.98 1013.10 1013.26 1013.38 1013.54 1013.66 1013.82 1013.98 1014.18 1014.38 1014.54 1014.78 1014.94 1015.06 1015.26 1015.50 1015.70 1015.86 1015.98 1016.02 1016.22 1016.42 1016.58 1016.78 1016.98 1017.18 1017.38 1017.54 1017.70 1017.82 1017.98 1018.14 1018.38 1018.54 1018.70 1018.94 1019.18 1019.42 1019.58 1019.78 1019.98 1020.18 1020.30 1020.38 1020.38 1020.42 1020.46 1020.50 1020.54
1010.22 1010.30 1010.38 1010.46 1010.66 1010.82 1010.98 1011.10 1011.26 1011.42 1011.54 1011.62 1011.70 1011.78 1011.86 1011.98 1012.14 1012.22 1012.34 1012.54 1012.62 1012.74 1012.86 1012.98 1013.06 1013.18 1013.30 1013.50 1013.66 1013.86 1014.06 1014.26 1014.46 1014.66 1014.78 1014.94 1015.18 1015.42 1015.58 1015.74 1015.94 1016.10 1016.26 1016.46 1016.70 1016.86 1017.06 1017.26 1017.38 1017.54 1017.70 1017.82 1018.02 1018.22 1018.42 1018.70 1018.94 1019.10 1019.30 1019.50 1019.70 1019.90 1020.02 1020.10 1020.14 1020.18 1020.26 1020.26 1020.34
1010.18 1010.22 1010.26 1010.38 1010.54 1010.70 1010.82 1010.98 1011.10 1011.22 1011.26 1011.34 1011.42 1011.46 1011.54 1011.66 1011.74 1011.86 1011.98 1012.10 1012.14 1012.26 1012.42 1012.54 1012.58 1012.70 1012.82 1012.98 1013.10 1013.26 1013.50 1013.70 1013.90 1014.14 1014.30 1014.46 1014.62 1014.82 1015.06 1015.26 1015.50 1015.70 1015.90 1016.14 1016.30 1016.46 1016.70 1016.86 1017.06 1017.18 1017.34 1017.46 1017.70 1017.90 1018.14 1018.42 1018.66 1018.82 1019.02 1019.22 1019.42 1019.58 1019.70 1019.82 1019.90 1019.98 1019.98 1020.06 1020.14
1010.06 1010.14 1010.22 1010.30 1010.42 1010.54 1010.70 1010.82 1010.94 1010.98 1011.02 1011.02 1011.06 1011.10 1011.22 1011.30 1011.42 1011.50 1011.58 1011.70 1011.78 1011.90 1011.98 1011.98 1012.10 1012.18 1012.30 1012.42 1012.54 1012.74 1012.98 1013.14 1013.38 1013.54 1013.74 1013.98 1014.10 1014.26 1014.50 1014.70 1014.94 1015.18 1015.42 1015.70 1015.94 1016.14 1016.34 1016.54 1016.70 1016.82 1017.02 1017.18 1017.42 1017.62 1017.86 1018.14 1018.38 1018.54 1018.74 1018.94 1019.10 1019.26 1019.42 1019.54 1019.62 1019.70 1019.78 1019.86 1019.94
1009.94 1010.02 1010.14 1010.22 1010.26 1010.42 1010.54 1010.66 1010.74 1010.82 1010.82 1010.78 1010.82 1010.86 1010.94 1010.98 1011.06 1011.18 1011.30 1011.46 1011.58 1011.66 1011.66 1011.70 1011.74 1011.78 1011.82 1011.86 1011.98 1012.18 1012.42 1012.66 1012.86 1013.10 1013.26 1013.46 1013.58 1013.78 1013.98 1014.22 1014.42 1014.70 1014.98 1015.26 1015.54 1015.82 1015.98 1016.18 1016.34 1016.54 1016.78 1016.98 1017.18 1017.42 1017.66 1017.86 1018.14 1018.30 1018.50 1018.70 1018.82 1018.98 1019.10 1019.22 1019.34 1019.46 1019.54 1019.62 1019.70
1009.82 1009.90 1009.98 1010.10 1010.18 1010.30 1010.42 1010.54 1010.54 1010.62 1010.66 1010.62 1010.66 1010.74 1010.82 1010.86 1010.98 1011.10 1011.26 1011.42 1011.50 1011.54 1011.58 1011.70 1011.82 1011.78 1011.74 1011.74 1011.78 1011.86 1012.06 1012.26 1012.46 1012.70 1012.86 1013.06 1013.26 1013.42 1013.66 1013.82 1014.10 1014.34 1014.62 1014.94 1015.22 1015.46 1015.66 1015.82 1016.06 1016.30 1016.54 1016.70 1016.98 1017.22 1017.42 1017.66 1017.86 1018.10 1018.26 1018.42 1018.62 1018.74 1018.82 1018.94 1019.02 1019.14 1019.26 1019.42 1019.50
1009.70 1009.82 1009.90 1009.98 1010.14 1010.26 1010.34 1010.42 1010.50 1010.54 1010.58 1010.62 1010.70 1010.74 1010.82 1010.90 1010.98 1011.14 1011.30 1011.42 1011.50 1011.58 1011.70 1011.90 1011.98 1012.02 1012.06 1012.02 1012.06 1012.06 1012.14 1012.26 1012.34 1012.46 1012.58 1012.82 1012.98 1013.22 1013.42 1013.66 1013.94 1014.22 1014.50 1014.78 1015.02 1015.22 1015.42 1015.58 1015.82 1016.06 1016.30 1016.54 1016.74 1016.98 1017.18 1017.42 1017.62 1017.82 1017.98 1018.14 1018.34 1018.46 1018.54 1018.66 1018.74 1018.86 1018.98 1019.10 1019.26
1009.66 1009.74 1009.82 1009.94 1010.06 1010.18 1010.26 1010.34 1010.42 1010.54 1010.54 1010.66 1010.70 1010.82 1010.94 1010.98 1011.06 1011.18 1011.26 1011.38 1011.46 1011.58 1011.74 1011.86 1011.98 1012.14 1012.26 1012.30 1012.34 1012.38 1012.42 1012.50 1012.54 1012.58 1012.66 1012.74 1012.90 1013.10 1013.38 1013.62 1013.90 1014.18 1014.46 1014.74 1014.94 1015.10 1015.26 1015.42 1015.62 1015.82 1016.06 1016.26 1016.50 1016.70 1016.94 1017.10 1017.26 1017.46 1017.66 1017.82 1018.02 1018.14 1018.26 1018.42 1018.54 1018.66 1018.78 1018.82 1018.98
1009.54 1009.62 1009.70 1009.82 1009.90 1010.02 1010.14 1010.22 1010.34 1010.42 1010.50 1010.58 1010.66 1010.78 1010.90 1010.98 1011.02 1011.10 1011.22 1011.30 1011.42 1011.54 1011.70 1011.82 1011.90 1012.06 1012.22 1012.30 1012.42 1012.46 1012.54 1012.62 1012.70 1012.78 1012.82 1012.90 1013.02 1013.18 1013.42 1013.66 1013.90 1014.14 1014.42 1014.70 1014.82 1014.98 1015.14 1015.26 1015.46 1015.66 1015.82 1016.06 1016.22 1016.42 1016.58 1016.78 1016.94 1017.10 1017.34 1017.50 1017.66 1017.82 1017.98 1018.14 1018.26 1018.42 1018.54 1018.58 1018.70
1009.38 1009.46 1009.54 1009.62 1009.70 1009.82 1009.90 1009.98 1010.14 1010.26 1010.30 1010.42 1010.50 1010.62 1010.74 1010.82 1010.90 1010.98 1011.10 1011.18 1011.26 1011.42 1011.58 1011.70 1011.82 1011.98 1012.14 1012.22 1012.30 1012.42 1012.50 1012.54 1012.70 1012.74 1012.82 1012.98 1013.10 1013.26 1013.42 1013.62 1013.82 1014.06 1014.26 1014.50 1014.66 1014.82 1014.94 1015.10 1015.26 1015.42 1015.58 1015.78 1015.94 1016.10 1016.26 1016.42 1016.66 1016.82 1017.02 1017.22 1017.38 1017.54 1017.70 1017.82 1018.02 1018.14 1018.26 1018.38 1018.50
1009.22 1009.30 1009.38 1009.42 1009.54 1009.58 1009.66 1009.74 1009.86 1009.98 1010.06 1010.14 1010.30 1010.42 1010.54 1010.62 1010.70 1010.78 1010.86 1010.98 1011.10 1011.26 1011.42 1011.54 1011.70 1011.82 1011.98 1012.10 1012.18 1012.26 1012.34 1012.42 1012.50 1012.58 1012.70 1012.82 1012.98 1013.14 1013.30 1013.46 1013.62 1013.82 1013.98 1014.18 1014.34 1014.50 1014.66 1014.82 1014.98 1015.10 1015.30 1015.50 1015.66 1015.82 1015.98 1016.14 1016.38 1016.58 1016.74 1016.94 1017.10 1017.26 1017.42 1017.58 1017.74 1017.86 1017.98 1018.14 1018.26
1009.10 1009.14 1009.22 1009.26 1009.34 1009.38 1009.42 1009.54 1009.70 1009.74 1009.82 1009.98 1010.10 1010.22 1010.30 1010.42 1010.46 1010.54 1010.62 1010.70 1010.82 1010.98 1011.10 1011.26 1011.46 1011.62 1011.74 1011.86 1011.98 1012.10 1012.14 1012.22 1012.26 1012.38 1012.50 1012.62 1012.78 1012.94 1013.06 1013.18 1013.34 1013.50 1013.70 1013.86 1013.98 1014.14 1014.30 1014.50 1014.66 1014.86 1015.06 1015.26 1015.42 1015.54 1015.74 1015.94 1016.14 1016.30 1016.50 1016.70 1016.82 1016.98 1017.14 1017.34 1017.46 1017.62 1017.74 1017.86 1017.98
1008.98 1009.02 1009.10 1009.10 1009.14 1009.22 1009.26 1009.38 1009.46 1009.54 1009.66 1009.78 1009.86 1009.98 1010.10 1010.18 1010.26 1010.34 1010.38 1010.46 1010.58 1010.70 1010.82 1010.98 1011.18 1011.34 1011.46 1011.54 1011.70 1011.82 1011.90 1011.98 1012.10 1012.18 1012.30 1012.42 1012.54 1012.66 1012.78 1012.86 1013.02 1013.18 1013.38 1013.54 1013.70 1013.82 1013.98 1014.18 1014.42 1014.62 1014.82 1015.02 1015.18 1015.38 1015.54 1015.70 1015.86 1016.06 1016.26 1016.42 1016.58 1016.78 1016.90 1017.06 1017.22 1017.34 1017.46 1017.58 1017.70
1008.86 1008.86 1008.90 1008.94 1008.98 1009.06 1009.14 1009.18 1009.26 1009.38 1009.46 1009.58 1009.70 1009.78 1009.90 1009.98 1010.06 1010.14 1010.14 1010.26 1010.38 1010.50 1010.62 1010.74 1010.86 1010.98 1011.10 1011.26 1011.38 1011.50 1011.62 1011.74 1011.82 1011.94 1012.06 1012.14 1012.26 1012.34 1012.46 1012.58 1012.74 1012.90 1013.06 1013.26 1013.42 1013.62 1013.82 1013.98 1014.18 1014.42 1014.58 1014.78 1014.94 1015.10 1015.30 1015.46 1015.66 1015.82 1016.02 1016.22 1016.38 1016.54 1016.66 1016.82 1016.98 1017.10 1017.22 1017.30 1017.42
1008.78 1008.74 1008.74 1008.78 1008.82 1008.86 1008.94 1008.98 1009.06 1009.14 1009.26 1009.34 1009.42 1009.50 1009.62 1009.70 1009.82 1009.82 1009.90 1009.98 1010.14 1010.26 1010.38 1010.42 1010.54 1010.66 1010.74 1010.90 1011.02 1011.18 1011.30 1011.42 1011.54 1011.66 1011.74 1011.86 1011.98 1012.06 1012.18 1012.34 1012.50 1012.62 1012.82 1013.10 1013.26 1013.42 1013.58 1013.78 1013.98 1014.14 1014.34 1014.54 1014.70 1014.86 1015.02 1015.22 1015.42 1015.62 1015.78 1015.98 1016.14 1016.26 1016.42 1016.54 1016.74 1016.86 1016.98 1017.10 1017.22
1008.66 1008.66 1008.66 1008.66 1008.70 1008.70 1008.74 1008.78 1008.82 1008.94 1008.98 1009.06 1009.10 1009.22 1009.30 1009.42 1009.46 1009.54 1009.62 1009.74 1009.86 1009.98 1010.02 1010.10 1010.18 1010.26 1010.38 1010.50 1010.66 1010.82 1010.98 1011.10 1011.22 1011.30 1011.42 1011.58 1011.70 1011.82 1011.98 1012.14 1012.26 1012.42 1012.62 1012.82 1013.02 1013.22 1013.42 1013.54 1013.74 1013.98 1014.14 1014.34 1014.50 1014.66 1014.82 1014.98 1015.18 1015.38 1015.54 1015.70 1015.86 1016.02 1016.18 1016.30 1016.50 1016.62 1016.74 1016.82 1016.94
1008.54 1008.54 1008.54 1008.50 1008.54 1008.54 1008.54 1008.58 1008.62 1008.70 1008.74 1008.78 1008.82 1008.90 1008.98 1009.10 1009.14 1009.26 1009.38 1009.46 1009.58 1009.62 1009.70 1009.74 1009.82 1009.90 1010.02 1010.14 1010.30 1010.46 1010.62 1010.74 1010.86 1010.98 1011.14 1011.30 1011.46 1011.62 1011.82 1011.98 1012.10 1012.22 1012.42 1012.62 1012.82 1013.06 1013.26 1013.42 1013.58 1013.78 1013.98 1014.14 1014.30 1014.42 1014.58 1014.78 1014.94 1015.10 1015.26 1015.42 1015.58 1015.78 1015.94 1016.06 1016.22 1016.38 1016.50 1016.62 1016.70
1008.50 1008.42 1008.42 1008.38 1008.38 1008.38 1008.38 1008.42 1008.42 1008.42 1008.42 1008.46 1008.54 1008.58 1008.70 1008.74 1008.86 1008.98 1009.06 1009.18 1009.26 1009.38 1009.42 1009.50 1009.54 1009.66 1009.78 1009.90 1010.02 1010.18 1010.30 1010.46 1010.58 1010.70 1010.86 1011.06 1011.26 1011.42 1011.58 1011.74 1011.90 1012.02 1012.18 1012.38 1012.62 1012.82 1013.02 1013.26 1013.42 1013.62 1013.82 1013.98 1014.14 1014.26 1014.42 1014.54 1014.70 1014.82 1014.98 1015.10 1015.30 1015.46 1015.66 1015.82 1015.98 1016.14 1016.26 1016.38 1016.46
1008.42 1008.34 1008.26 1008.26 1008.22 1008.22 1008.22 1008.22 1008.18 1008.18 1008.14 1008.14 1008.22 1008.26 1008.34 1008.42 1008.54 1008.66 1008.78 1008.86 1008.98 1009.10 1009.26 1009.38 1009.42 1009.50 1009.62 1009.74 1009.82 1009.94 1010.06 1010.18 1010.34 1010.50 1010.66 1010.82 1010.98 1011.22 1011.42 1011.54 1011.70 1011.82 1011.98 1012.18 1012.34 1012.54 1012.70 1012.94 1013.14 1013.42 1013.58 1013.78 1013.94 1014.10 1014.22 1014.34 1014.42 1014.54 1014.70 1014.86 1015.02 1015.22 1015.38 1015.54 1015.70 1015.86 1015.98 1016.10 1016.22
1008.30 1008.26 1008.22 1008.14 1008.14 1008.06 1008.02 1008.02 1007.98 1007.94 1007.98 1007.98 1007.98 1007.98 1008.06 1008.14 1008.22 1008.34 1008.42 1008.54 1008.70 1008.82 1009.02 1009.18 1009.26 1009.42 1009.46 1009.54 1009.66 1009.74 1009.86 1009.98 1010.14 1010.26 1010.42 1010.58 1010.74 1010.94 1011.10 1011.26 1011.38 1011.58 1011.74 1011.86 1012.02 1012.18 1012.38 1012.54 1012.78 1013.02 1013.30 1013.54 1013.70 1013.82 1013.98 1014.10 1014.22 1014.34 1014.46 1014.62 1014.78 1014.94 1015.10 1015.26 1015.42 1015.54 1015.70 1015.82 1015.90
1008.26 1008.14 1008.10 1008.06 1008.02 1007.98 1007.94 1007.86 1007.82 1007.82 1007.78 1007.74 1007.74 1007.78 1007.82 1007.86 1007.98 1008.02 1008.14 1008.26 1008.42 1008.62 1008.78 1008.94 1009.06 1009.18 1009.26 1009.34 1009.42 1009.54 1009.70 1009.78 1009.94 1010.06 1010.22 1010.34 1010.54 1010.70 1010.82 1010.94 1011.10 1011.26 1011.46 1011.58 1011.70 1011.82 1012.02 1012.18 1012.38 1012.62 1012.94 1013.26 1013.42 1013.54 1013.66 1013.82 1013.98 1014.14 1014.26 1014.42 1014.54 1014.70 1014.82 1014.94 1015.06 1015.18 1015.30 1015.46 1015.58
1008.26 1008.14 1008.06 1008.02 1007.98 1007.94 1007.86 1007.82 1007.78 1007.70 1007.58 1007.54 1007.54 1007.54 1007.58 1007.66 1007.70 1007.78 1007.86 1007.98 1008.14 1008.34 1008.54 1008.66 1008.82 1008.94 1009.02 1009.10 1009.18 1009.26 1009.42 1009.54 1009.70 1009.86 1009.98 1010.14 1010.26 1010.38 1010.54 1010.62 1010.78 1010.98 1011.14 1011.26 1011.42 1011.54 1011.70 1011.82 1011.98 1012.18 1012.50 1012.86 1013.10 1013.26 1013.42 1013.54 1013.74 1013.94 1014.10 1014.22 1014.30 1014.42 1014.50 1014.58 1014.70 1014.82 1014.98 1015.06 1015.22
1008.18 1008.10 1007.98 1007.98 1007.90 1007.82 1007.82 1007.82 1007.70 1007.58 1007.50 1007.42 1007.38 1007.38 1007.42 1007.42 1007.42 1007.50 1007.58 1007.70 1007.82 1007.98 1008.18 1008.38 1008.54 1008.70 1008.82 1008.82 1008.94 1009.10 1009.22 1009.38 1009.50 1009.66 1009.78 1009.90 1009.98 1010.10 1010.22 1010.34 1010.50 1010.70 1010.86 1010.98 1011.10 1011.18 1011.30 1011.42 1011.58 1011.74 1011.98 1012.38 1012.74 1013.02 1013.14 1013.30 1013.46 1013.62 1013.82 1013.94 1013.98 1014.10 1014.18 1014.26 1014.38 1014.50 1014.58 1014.66 1014.78
1008.06 1007.98 1007.94 1007.82 1007.74 1007.70 1007.66 1007.66 1007.54 1007.50 1007.42 1007.34 1007.26 1007.26 1007.18 1007.22 1007.22 1007.26 1007.34 1007.46 1007.54 1007.70 1007.90 1008.10 1008.26 1008.38 1008.46 1008.54 1008.70 1008.90 1009.02 1009.14 1009.26 1009.42 1009.54 1009.66 1009.74 1009.82 1009.98 1010.14 1010.26 1010.42 1010.54 1010.70 1010.82 1010.90 1010.98 1011.06 1011.22 1011.30 1011.50 1011.82 1012.26 1012.62 1012.82 1012.98 1013.14 1013.26 1013.42 1013.50 1013.62 1013.74 1013.82 1013.90 1013.98 1014.14 1014.18 1014.26 1014.34
1007.90 1007.82 1007.78 1007.66 1007.58 1007.54 1007.50 1007.42 1007.42 1007.38 1007.34 1007.26 1007.18 1007.10 1007.06 1007.02 1007.02 1007.06 1007.10 1007.18 1007.30 1007.42 1007.58 1007.82 1007.98 1008.10 1008.18 1008.30 1008.46 1008.62 1008.70 1008.82 1008.98 1009.14 1009.26 1009.34 1009.46 1009.58 1009.70 1009.82 1009.98 1010.14 1010.30 1010.42 1010.50 1010.58 1010.66 1010.74 1010.86 1010.98 1011.06 1011.30 1011.74 1012.14 1012.42 1012.58 1012.70 1012.86 1012.98 1013.10 1013.26 1013.38 1013.50 1013.58 1013.66 1013.74 1013.82 1013.86 1013.94
1007.70 1007.62 1007.54 1007.46 1007.42 1007.30 1007.26 1007.26 1007.22 1007.14 1007.10 1007.10 1007.02 1006.98 1006.94 1006.86 1006.86 1006.90 1006.94 1006.98 1007.10 1007.22 1007.42 1007.54 1007.70 1007.82 1007.94 1008.10 1008.22 1008.30 1008.42 1008.58 1008.70 1008.82 1008.98 1009.10 1009.22 1009.34 1009.50 1009.66 1009.78 1009.90 1010.02 1010.14 1010.22 1010.26 1010.34 1010.42 1010.50 1010.58 1010.70 1010.82 1011.22 1011.66 1011.98 1012.26 1012.38 1012.54 1012.66 1012.78 1012.90 1013.06 1013.18 1013.26 1013.34 1013.38 1013.42 1013.46 1013.54
1007.42 1007.34 1007.30 1007.26 1007.18 1007.10 1007.02 1006.98 1006.98 1006.90 1006.86 1006.82 1006.82 1006.78 1006.74 1006.74 1006.74 1006.78 1006.82 1006.90 1006.98 1007.06 1007.14 1007.26 1007.42 1007.54 1007.70 1007.78 1007.86 1007.98 1008.10 1008.22 1008.34 1008.50 1008.62 1008.82 1008.98 1009.10 1009.26 1009.38 1009.46 1009.58 1009.74 1009.82 1009.94 1009.98 1010.06 1010.10 1010.14 1010.26 1010.34 1010.42 1010.74 1011.18 1011.58 1011.86 1012.10 1012.26 1012.38 1012.46 1012.62 1012.74 1012.82 1012.94 1012.98 1012.98 1013.02 1013.10 1013.14
1007.14 1007.10 1007.06 1006.98 1006.90 1006.82 1006.78 1006.70 1006.66 1006.62 1006.54 1006.54 1006.50 1006.54 1006.54 1006.58 1006.62 1006.70 1006.70 1006.78 1006.82 1006.86 1006.94 1006.98 1007.10 1007.26 1007.38 1007.46 1007.58 1007.70 1007.78 1007.86 1007.98 1008.14 1008.34 1008.50 1008.66 1008.82 1008.94 1009.02 1009.14 1009.26 1009.42 1009.54 1009.58 1009.66 1009.74 1009.82 1009.86 1009.98 1010.02 1010.14 1010.42 1010.78 1011.18 1011.46 1011.70 1011.90 1012.02 1012.14 1012.22 1012.34 1012.42 1012.54 1012.54 1012.62 1012.66 1012.70 1012.74
1006.98 1006.90 1006.82 1006.70 1006.62 1006.54 1006.50 1006.42 1006.38 1006.34 1006.26 1006.26 1006.26 1006.26 1006.34 1006.42 1006.46 1006.50 1006.54 1006.62 1006.70 1006.74 1006.78 1006.82 1006.90 1007.02 1007.10 1007.22 1007.30 1007.38 1007.46 1007.54 1007.66 1007.78 1007.98 1008.14 1008.34 1008.46 1008.54 1008.66 1008.78 1008.90 1009.06 1009.18 1009.30 1009.38 1009.42 1009.54 1009.58 1009.70 1009.74 1009.86 1010.10 1010.42 1010.74 1011.10 1011.30 1011.46 1011.58 1011.70 1011.82 1011.86 1011.98 1012.10 1012.18 1012.26 1012.26 1012.34 1012.34
1006.70 1006.62 1006.54 1006.42 1006.34 1006.26 1006.18 1006.14 1006.10 1006.02 1005.98 1005.98 1005.98 1005.98 1006.06 1006.14 1006.22 1006.26 1006.38 1006.42 1006.50 1006.54 1006.54 1006.62 1006.70 1006.78 1006.82 1006.90 1006.98 1007.10 1007.18 1007.26 1007.34 1007.46 1007.62 1007.78 1007.98 1008.10 1008.18 1008.30 1008.42 1008.58 1008.70 1008.86 1008.98 1009.06 1009.14 1009.22 1009.26 1009.38 1009.50 1009.66 1009.78 1009.98 1010.30 1010.62 1010.82 1010.98 1011.10 1011.26 1011.34 1011.42 1011.54 1011.66 1011.74 1011.82 1011.86 1011.94 1011.98
1006.42 1006.30 1006.22 1006.14 1006.02 1005.94 1005.86 1005.82 1005.82 1005.78 1005.70 1005.70 1005.70 1005.70 1005.78 1005.82 1005.94 1006.02 1006.14 1006.22 1006.26 1006.30 1006.34 1006.38 1006.42 1006.50 1006.54 1006.62 1006.70 1006.82 1006.90 1006.98 1007.10 1007.18 1007.26 1007.42 1007.54 1007.70 1007.82 1007.98 1008.10 1008.26 1008.42 1008.54 1008.62 1008.74 1008.82 1008.94 1008.98 1009.10 1009.26 1009.38 1009.46 1009.62 1009.86 1010.14 1010.38 1010.54 1010.70 1010.78 1010.86 1010.98 1011.10 1011.18 1011.26 1011.38 1011.50 1011.54 1011.58
1006.18 1006.14 1006.02 1005.94 1005.82 1005.70 1005.62 1005.58 1005.54 1005.50 1005.42 1005.42 1005.42 1005.46 1005.54 1005.58 1005.66 1005.70 1005.82 1005.98 1006.02 1006.06 1006.06 1006.10 1006.14 1006.14 1006.26 1006.34 1006.42 1006.54 1006.62 1006.74 1006.82 1006.90 1006.98 1007.06 1007.18 1007.34 1007.50 1007.62 1007.78 1007.94 1008.10 1008.26 1008.30 1008.42 1008.54 1008.62 1008.74 1008.82 1008.98 1009.10 1009.18 1009.26 1009.46 1009.70 1009.86 1010.02 1010.18 1010.30 1010.42 1010.54 1010.70 1010.78 1010.82 1010.94 1011.06 1011.14 1011.22
1005.98 1005.94 1005.82 1005.70 1005.62 1005.50 1005.42 1005.30 1005.26 1005.22 1005.18 1005.14 1005.14 1005.18 1005.26 1005.30 1005.34 1005.42 1005.50 1005.66 1005.74 1005.74 1005.78 1005.82 1005.82 1005.90 1005.98 1006.14 1006.22 1006.26 1006.38 1006.46 1006.54 1006.62 1006.70 1006.74 1006.82 1006.98 1007.14 1007.30 1007.42 1007.58 1007.78 1007.94 1008.02 1008.14 1008.26 1008.34 1008.42 1008.54 1008.62 1008.78 1008.86 1008.98 1009.10 1009.26 1009.42 1009.54 1009.70 1009.82 1009.98 1010.14 1010.26 1010.42 1010.46 1010.54 1010.66 1010.70 1010.74
1005.78 1005.70 1005.62 1005.54 1005.42 1005.30 1005.18 1005.06 1004.98 1004.94 1004.94 1004.94 1004.90 1004.94 1004.98 1005.02 1005.06 1005.10 1005.22 1005.34 1005.42 1005.46 1005.54 1005.54 1005.58 1005.66 1005.74 1005.82 1005.94 1005.98 1006.10 1006.14 1006.26 1006.34 1006.42 1006.46 1006.54 1006.70 1006.82 1006.98 1007.10 1007.26 1007.46 1007.62 1007.74 1007.86 1007.98 1008.06 1008.14 1008.18 1008.30 1008.46 1008.62 1008.74 1008.86 1008.98 1009.06 1009.14 1009.26 1009.46 1009.62 1009.82 1009.94 1010.02 1010.14 1010.18 1010.26 1010.34 1010.38
1005.58 1005.50 1005.42 1005.30 1005.22 1005.10 1004.98 1004.86 1004.74 1004.70 1004.70 1004.70 1004.66 1004.70 1004.70 1004.74 1004.82 1004.86 1004.94 1005.02 1005.10 1005.18 1005.26 1005.26 1005.34 1005.42 1005.50 1005.54 1005.66 1005.70 1005.78 1005.82 1005.98 1006.06 1006.14 1006.26 1006.34 1006.46 1006.54 1006.66 1006.82 1006.98 1007.14 1007.30 1007.46 1007.54 1007.66 1007.74 1007.82 1007.90 1008.02 1008.18 1008.34 1008.50 1008.62 1008.74 1008.78 1008.82 1008.98 1009.10 1009.30 1009.46 1009.58 1009.70 1009.78 1009.82 1009.90 1009.98 1010.06
Wind_Speed
13 12 11 10 9 9 8 8 8 8 8 8 8 8 7 7 7 7 6 6 6 6 6 6 7 8 9 12 14 15 15 16 16 17 18 18 16 16 15 14 13 13 13 13 13 12 12 13 10 8 6 7 8 8 8 7 8 10 10 10 9 10 10 11 11 12 13 13 10
14 14 13 12 11 9 8 7 8 8 8 8 8 8 8 7 7 7 7 7 6 6 6 6 7 9 10 13 14 14 15 15 16 17 17 18 17 16 15 14 14 14 14 14 14 12 12 13 11 9 7 7 8 8 8 7 8 9 11 12 10 8 9 9 11 12 13 13 11
14 13 13 12 11 10 9 8 8 9 9 9 8 8 8 7 6 6 6 7 7 7 6 6 7 9 11 12 12 13 13 14 15 16 16 16 16 16 15 14 14 15 15 14 14 13 12 13 11 9 8 7 8 8 9 9 9 10 11 12 9 7 7 7 10 11 11 10 11
13 13 13 13 14 13 11 9 9 10 10 9 9 9 8 7 7 6 6 7 8 8 7 7 7 8 9 10 11 12 12 13 15 15 15 15 16 16 16 15 15 16 16 15 15 14 13 13 11 9 8 9 9 9 8 8 10 10 9 10 8 7 7 7 9 9 9 8 10
13 13 12 12 14 14 13 11 11 10 9 8 8 8 8 7 7 7 7 8 8 8 8 9 8 8 9 10 11 12 13 14 15 15 14 14 15 16 16 16 16 16 16 16 16 15 15 15 11 9 9 9 8 8 9 9 10 9 8 7 7 7 7 8 8 8 8 8 9
12 13 12 12 13 13 12 11 12 11 9 8 9 9 9 7 7 7 8 8 8 9 10 10 10 9 10 11 12 13 13 14 14 14 14 15 15 15 16 17 17 16 16 16 17 16 15 15 10 9 8 8 7 8 10 11 10 9 8 7 7 7 8 9 8 8 8 9 10
12 12 12 12 12 12 11 11 11 10 10 9 11 11 11 10 10 10 11 10 9 10 10 10 10 11 11 13 13 14 14 13 14 15 15 15 15 15 16 16 17 17 17 17 17 17 15 14 10 9 8 8 8 9 11 11 10 10 9 9 8 8 9 10 8 8 9 11 12
11 11 12 12 11 11 12 12 11 10 10 9 11 13 14 13 13 13 13 11 11 10 10 9 11 13 13 13 14 14 15 15 15 15 16 15 16 17 17 17 17 18 18 17 17 17 16 13 10 9 9 8 8 9 11 13 12 11 11 11 9 8 9 8 7 8 9 11 12
9 10 10 10 10 10 11 12 12 12 11 11 13 14 14 15 15 15 14 12 12 12 11 11 13 15 15 15 16 15 16 16 16 16 16 16 18 18 18 17 18 18 18 17 17 18 16 13 10 9 9 8 8 9 11 14 14 13 12 11 10 10 10 9 9 9 10 11 11
9 9 9 9 10 10 10 11 12 13 14 14 15 15 15 15 15 15 13 12 12 12 13 13 15 16 17 17 17 16 15 15 16 17 17 17 18 19 18 17 18 18 18 17 17 17 17 13 11 10 10 9 10 11 13 14 15 14 13 10 10 11 12 11 12 12 12 11 11
10 9 9 9 9 10 10 11 11 13 14 14 15 15 15 15 15 14 13 11 12 13 15 14 15 16 17 17 16 16 15 15 15 16 17 18 19 19 18 17 18 18 18 17 16 15 15 13 12 12 12 11 11 12 13 15 15 15 14 11 12 13 13 14 13 12 12 11 12
10 9 9 9 9 9 10 10 10 11 13 14 15 15 14 14 14 13 12 12 13 13 14 13 14 15 15 13 14 14 14 15 15 16 17 17 18 18 18 17 17 18 17 16 15 14 13 13 13 14 14 13 11 11 12 15 15 15 15 14 13 13 14 14 13 12 11 11 12
9 9 9 9 9 9 9 10 10 10 11 12 13 12 12 12 12 12 12 13 12 12 11 10 11 11 11 11 11 11 12 13 15 15 15 16 16 16 16 16 16 16 16 15 14 13 13 14 14 15 15 14 12 11 12 15 15 15 16 16 15 15 14 14 13 12 12 12 12
8 8 9 9 9 9 9 9 8 9 10 11 11 10 10 10 11 11 11 12 11 10 9 9 9 9 9 10 10 10 10 11 13 14 14 13 13 13 14 14 14 14 14 13 14 14 14 14 14 15 15 15 14 13 14 15 15 15 16 16 16 16 15 14 13 13 12 13 12
8 9 9 9 9 9 8 9 8 8 9 10 10 9 9 9 10 10 10 11 11 10 9 8 8 9 9 10 10 10 10 10 12 12 12 11 11 12 13 13 14 14 13 13 14 14 14 14 15 15 15 16 16 15 15 15 15 15 15 16 16 16 15 14 14 13 13 13 12
8 9 9 9 9 9 9 8 7 7 8 9 9 9 9 9 9 9 10 10 10 9 9 9 8 8 9 10 11 11 11 11 11 12 11 11 11 12 13 14 14 15 14 14 14 15 14 15 14 15 16 17 17 16 16 15 15 15 15 16 16 15 15 14 14 14 14 14 13
9 9 9 9 10 10 10 9 8 8 8 9 9 9 9 9 8 9 10 10 9 9 9 10 9 8 8 9 10 11 11 11 12 12 12 12 12 13 14 15 15 15 15 15 16 16 15 15 15 16 16 17 16 16 15 15 15 15 15 15 15 15 14 14 15 14 14 15 15
9 9 9 9 10 10 10 10 9 9 9 9 9 9 9 9 9 9 10 10 10 10 11 11 10 10 10 10 10 10 11 11 12 12 12 13 13 14 15 15 16 16 16 16 16 17 17 16 16 16 16 16 15 15 15 15 14 15 15 15 15 14 14 14 15 14 14 15 15
9 9 9 9 10 10 10 10 10 10 10 10 9 9 9 10 10 10 10 10 11 11 12 12 11 11 11 12 12 11 11 12 12 13 13 13 13 14 15 15 15 16 16 16 16 17 17 17 17 16 16 15 14 14 14 14 14 14 14 14 14 13 13 13 14 13 13 13 14
9 9 9 9 9 9 10 10 10 11 10 10 10 10 10 11 11 11 11 10 11 11 12 12 12 12 13 13 13 13 12 12 13 14 14 14 14 14 15 15 15 15 15 15 16 16 16 16 16 16 16 15 14 14 14 14 14 14 14 13 13 13 13 13 13 13 12 12 13
9 9 9 9 9 9 9 10 10 10 11 11 11 11 11 11 12 12 12 12 12 12 13 13 13 13 13 14 14 14 13 12 13 13 14 14 14 14 14 14 15 14 14 14 14 15 16 16 16 15 15 14 15 15 14 14 14 14 14 12 12 13 13 13 12 12 12 12 13
9 9 9 9 9 9 9 9 10 10 10 11 11 11 12 12 12 12 12 12 12 13 14 14 14 14 14 14 14 14 13 12 12 13 13 13 13 13 13 13 14 14 14 13 14 15 15 15 15 14 14 14 14 14 14 14 14 14 14 14 13 13 13 12 12 12 13 13 13
10 10 9 8 9 9 10 10 10 10 11 11 11 11 12 12 12 12 12 12 13 13 14 14 14 14 15 14 14 14 13 13 12 12 12 12 12 12 13 12 13 13 13 13 13 13 14 13 14 14 13 13 13 14 14 14 14 14 14 15 14 13 12 12 12 12 12 12 12
11 10 9 8 8 9 9 10 10 10 11 11 11 12 12 12 12 12 12 13 13 13 13 12 12 13 14 14 14 14 14 13 13 13 13 12 12 12 13 12 12 13 12 11 12 14 14 12 12 12 12 12 12 13 14 14 14 14 14 14 13 13 12 12 12 12 12 13 13
11 11 10 9 10 10 10 10 10 11 11 12 12 12 12 12 12 12 12 13 13 13 13 12 12 12 12 12 13 13 13 14 14 13 13 13 13 13 12 12 12 11 10 10 16 19 19 16 13 12 11 11 12 12 13 14 14 14 13 13 13 12 12 12 12 12 13 13 13
10 10 10 10 10 11 11 11 11 11 12 12 12 12 12 12 11 12 12 12 13 13 13 12 12 11 11 11 12 12 13 13 13 13 13 13 13 14 13 12 11 9 9 12 19 23 24 23 20 16 13 11 11 12 12 12 13 13 13 12 12 12 12 12 13 13 13 13 13
10 9 9 10 10 11 11 11 11 12 12 12 12 12 12 11 11 11 12 12 12 12 12 11 11 11 11 11 12 12 12 12 12 13 13 13 14 14 14 12 10 9 10 15 21 24 26 27 26 23 18 12 12 12 12 11 12 13 13 13 12 12 12 12 13 14 14 13 13
10 10 10 10 10 10 11 11 12 12 12 12 12 11 11 11 11 11 12 12 11 11 11 10 10 10 9 9 11 12 12 12 12 12 13 13 14 15 14 13 11 10 12 18 22 25 26 27 28 27 23 16 12 11 11 11 11 11 12 12 12 13 13 13 13 13 13 14 14
10 10 10 10 10 10 11 11 12 13 13 13 12 11 11 11 12 12 12 12 12 11 10 9 8 8 8 9 10 11 12 13 12 12 12 13 14 15 15 14 13 13 16 21 24 25 27 27 28 28 27 22 14 11 10 10 10 11 11 11 12 12 13 13 12 12 13 13 13
9 9 10 10 11 11 11 11 12 13 13 12 12 12 12 11 12 12 12 12 12 11 10 8 8 9 10 10 10 10 11 12 12 12 13 14 15 15 15 15 14 14 17 22 24 26 27 28 28 29 28 27 18 13 10 10 11 11 11 11 12 13 14 13 14 14 13 13 13
8 9 9 10 11 11 11 12 12 12 12 12 12 12 12 12 12 12 12 12 11 11 10 10 11 11 12 11 11 11 12 12 12 13 13 14 15 15 15 16 15 15 17 22 24 26 27 28 28 29 29 29 21 15 11 11 12 11 11 11 12 13 14 13 14 15 15 14 14
8 8 9 10 11 11 11 12 12 12 12 13 13 13 12 12 12 11 11 11 11 11 11 12 12 13 13 12 12 12 12 13 13 13 13 14 15 15 15 15 15 15 17 22 24 25 27 27 28 29 30 30 22 17 13 12 12 12 12 12 13 14 14 13 13 14 16 16 15
8 8 9 10 10 11 11 12 12 12 12 13 13 13 12 12 11 11 10 10 10 11 12 12 13 13 13 13 13 13 14 13 14 14 14 15 15 15 15 15 14 15 18 22 24 25 26 27 28 29 30 30 22 17 15 14 12 11 11 12 13 14 15 15 14 15 16 16 15
8 9 9 10 10 11 11 11 11 12 12 12 12 12 12 11 11 10 10 10 10 10 11 12 12 13 13 13 13 14 14 13 13 14 15 15 15 15 15 14 12 14 18 22 24 25 26 27 28 29 29 30 21 17 15 15 13 12 12 13 14 14 15 15 15 15 15 15 15
8 9 9 10 10 11 11 11 11 11 11 12 12 12 11 11 11 11 11 10 10 10 11 11 12 12 12 13 13 14 14 14 14 14 14 15 15 16 16 15 13 15 19 22 24 25 26 27 27 28 28 27 18 14 14 16 14 14 14 15 15 15 15 15 15 15 14 14 15
8 9 9 10 11 11 11 11 11 11 11 11 11 11 11 11 11 11 11 11 11 11 11 11 12 12 12 13 13 13 14 14 14 14 14 15 15 16 16 16 15 17 19 22 23 24 25 26 27 28 27 23 15 12 13 14 14 14 16 16 15 16 16 15 15 14 14 13 14
11 11 11 12 12 12 12 12 12 12 12 11 11 11 11 11 11 11 10 10 11 11 12 12 12 12 13 13 13 13 13 14 14 14 15 15 15 16 16 16 16 17 19 21 23 24 25 26 27 27 25 19 13 11 11 12 12 13 15 16 15 15 15 14 14 13 13 13 13
13 13 13 14 13 13 12 12 12 12 12 12 11 11 11 10 10 10 10 10 11 11 12 12 12 13 13 13 13 13 14 14 14 15 15 15 15 15 15 16 15 16 17 20 22 24 25 26 27 27 24 17 13 11 11 10 11 12 13 13 13 14 14 12 12 12 12 14 16
14 14 14 14 15 14 14 14 13 13 12 12 11 11 11 10 9 9 10 10 11 11 12 12 12 12 12 13 12 13 13 14 15 15 15 15 15 15 15 15 15 15 16 19 22 23 24 25 26 27 25 18 14 12 10 10 10 11 12 11 11 12 12 11 10 10 11 14 18
15 15 15 15 15 15 15 15 15 13 12 11 11 11 11 10 10 9 9 9 10 11 11 11 12 12 12 12 12 13 13 14 14 14 15 15 15 15 16 15 15 15 16 19 21 23 24 25 26 27 25 18 13 11 10 9 10 10 11 10 9 10 10 10 10 10 10 12 16
14 15 15 15 15 15 16 16 15 14 12 11 11 11 10 10 9 9 9 9 10 10 10 10 11 12 12 12 11 12 13 13 14 14 14 14 14 15 15 15 14 14 15 17 20 22 24 25 26 27 25 17 13 11 10 9 9 10 10 10 9 9 9 9 9 9 9 10 11
Wind_Direction
222 221 220 221 223 223 224 224 222 221 222 223 225 224 222 218 218 217 212 207 205 202 199 196 194 193 193 193 196 198 200 202 203 205 207 209 209 207 204 201 199 198 197 198 196 195 195 196 195 193 191 191 191 191 190 188 187 188 190 192 196 199 201 202 206 210 211 212 211
224 222 221 221 222 223 223 222 221 220 220 221 224 224 223 220 218 216 213 209 204 199 197 197 195 194 193 194 195 197 199 201 203 205 207 209 208 205 202 200 198 197 197 197 197 196 196 196 194 192 190 190 190 191 190 186 185 187 190 194 196 197 200 205 210 213 214 214 213
226 224 223 222 221 220 220 220 220 220 220 222 222 223 223 222 218 215 213 209 204 200 198 198 197 196 195 194 194 195 197 199 202 204 206 208 207 204 201 199 198 197 197 197 198 197 196 195 194 192 190 189 189 190 189 185 184 187 191 195 195 195 198 207 212 214 214 214 214
229 227 225 224 223 222 221 220 220 220 220 220 222 224 225 224 220 216 213 211 208 206 203 200 199 197 195 194 192 192 194 197 200 203 207 209 208 205 202 198 197 197 197 197 198 198 197 194 194 193 192 189 188 189 188 183 184 186 190 193 193 194 200 208 212 213 212 214 214
231 229 227 226 225 225 224 223 221 220 219 219 220 222 223 224 221 218 216 214 212 208 205 201 199 197 195 193 192 191 192 195 198 202 206 209 209 207 203 200 198 197 197 197 198 198 196 194 194 194 193 189 188 187 185 180 182 185 187 188 191 196 202 209 211 211 211 211 212
234 232 229 228 228 227 227 225 224 222 220 217 219 220 221 220 217 215 214 215 214 211 207 203 201 198 196 195 193 193 193 195 197 200 204 207 209 209 206 202 199 197 196 197 197 197 195 193 194 194 192 188 187 186 184 180 181 183 185 187 192 199 205 210 210 209 209 210 211
238 236 233 231 228 228 227 227 226 224 222 221 221 221 220 219 217 215 214 214 213 210 207 203 202 199 197 195 196 196 195 195 197 199 201 204 206 207 207 203 200 198 197 197 196 196 195 193 194 193 191 187 186 184 183 180 180 182 186 190 194 201 207 211 210 208 209 211 211
244 242 239 235 230 228 227 227 226 226 224 223 223 223 222 221 219 217 215 213 211 208 205 202 201 200 198 196 197 197 197 197 198 198 199 201 203 205 205 204 201 200 198 196 195 195 194 193 194 193 190 187 185 183 182 180 182 185 189 193 197 202 205 207 207 208 209 211 210
246 245 243 240 233 228 225 225 225 226 227 227 226 225 224 223 221 219 217 215 212 209 206 204 202 201 199 198 198 198 197 197 198 198 199 200 201 202 203 202 201 200 198 196 195 194 193 193 195 194 190 187 184 182 181 181 184 188 192 196 200 203 206 206 206 208 210 211 211
246 245 244 242 235 229 224 222 224 226 228 230 229 228 226 224 223 220 218 215 213 211 210 208 204 202 200 200 199 198 197 197 198 199 199 200 201 201 201 200 199 199 197 195 194 193 193 193 195 193 191 187 183 181 180 182 186 190 194 197 201 204 206 206 206 208 210 212 212
247 246 244 242 237 231 226 223 224 226 229 231 231 230 228 226 224 222 219 216 216 216 215 213 208 205 203 201 200 198 197 196 198 199 200 201 201 201 200 199 198 197 195 193 191 191 192 194 194 193 191 187 184 182 181 183 188 192 197 201 202 205 207 208 206 207 209 211 212
249 247 245 243 238 233 228 226 227 228 230 232 233 233 232 230 227 225 222 220 221 221 221 219 215 212 209 206 203 200 198 197 199 200 201 202 202 201 200 199 197 195 194 191 190 190 191 194 193 192 190 188 185 183 183 185 189 194 198 203 204 206 208 209 207 207 207 209 211
252 251 248 245 240 235 232 230 232 233 235 236 236 236 236 236 232 229 227 225 225 226 227 225 222 220 218 216 212 208 204 202 202 203 203 203 202 200 199 198 196 195 193 191 190 191 192 194 192 191 189 188 186 185 185 187 190 195 199 202 205 207 209 209 208 207 208 208 210
254 252 250 247 242 238 234 233 235 237 239 241 240 241 241 242 238 235 232 230 230 230 230 229 226 225 225 224 223 219 214 211 210 209 208 205 201 198 197 197 196 195 194 193 193 194 194 195 192 190 188 188 188 188 188 189 192 195 198 202 205 207 209 209 208 208 208 209 210
254 251 248 246 242 238 235 232 234 237 240 242 242 241 241 242 240 238 236 236 234 234 232 230 226 225 226 227 227 225 222 218 216 215 213 208 202 198 197 197 197 196 195 195 196 197 196 195 193 190 189 190 191 190 190 191 193 196 199 201 205 207 208 209 208 208 209 210 211
254 251 247 243 240 237 233 230 230 233 236 239 239 238 238 238 238 237 236 236 236 234 232 230 227 225 224 225 226 225 223 221 218 216 213 209 204 200 199 199 199 198 197 197 198 198 197 195 193 192 191 192 193 193 192 192 194 197 200 202 205 206 208 208 207 207 209 210 213
252 249 246 242 240 236 233 229 228 229 231 234 235 234 234 234 234 234 233 232 231 230 229 228 225 223 222 222 222 222 221 220 217 214 212 209 205 203 202 202 201 199 198 197 198 198 197 195 194 193 193 194 194 194 194 194 195 198 201 203 205 206 207 207 207 208 209 211 214
251 248 245 242 240 238 235 231 230 230 232 233 232 232 231 232 233 233 232 229 227 225 225 224 222 220 219 219 218 218 217 216 215 213 211 209 207 205 205 204 203 201 198 197 197 197 196 194 194 194 195 196 196 196 195 195 197 199 202 204 205 206 207 208 208 208 209 211 214
257 252 247 243 242 239 237 234 233 233 234 233 232 231 231 232 233 233 232 228 224 223 222 223 221 220 219 218 217 215 214 214 214 214 213 211 209 208 207 206 204 202 199 197 198 197 196 194 194 194 195 196 196 196 196 197 199 200 202 205 206 207 207 208 208 209 210 211 214
267 261 255 249 245 242 239 236 236 236 235 235 233 231 231 231 232 232 231 228 223 221 221 222 222 221 219 218 216 215 214 214 214 214 214 213 211 210 208 206 204 202 199 197 197 197 196 195 194 194 194 194 195 196 197 198 200 201 203 205 207 207 208 208 208 209 210 211 214
275 269 264 258 252 248 244 241 238 237 237 236 235 233 232 230 231 231 230 227 223 222 221 221 222 221 219 217 215 215 214 214 214 214 214 213 212 210 208 205 203 202 199 196 197 197 196 195 195 194 194 194 195 196 197 197 200 202 204 206 207 208 208 207 208 209 211 213 215
283 277 271 265 258 254 250 246 243 240 238 237 236 234 233 231 231 230 229 227 224 223 222 222 221 220 218 216 214 214 214 214 214 214 213 212 210 208 206 204 203 201 199 196 196 196 196 196 195 195 194 195 196 196 196 197 199 202 205 207 208 208 207 207 207 209 211 213 216
291 286 279 271 263 258 254 251 247 243 239 237 236 234 233 232 232 230 229 226 224 224 224 224 223 220 217 215 213 213 213 214 214 213 211 209 207 206 204 203 203 202 200 196 195 195 195 196 196 195 195 195 196 197 197 198 200 202 205 207 207 207 206 206 207 208 210 213 215
294 289 284 276 268 261 257 253 249 245 242 239 237 235 233 232 231 230 229 227 225 225 224 225 224 222 219 216 213 212 211 212 212 211 209 207 205 204 204 204 204 203 201 196 194 193 194 194 195 195 195 196 196 197 198 200 201 203 204 206 206 206 205 206 206 207 210 212 215
291 287 282 277 271 265 259 254 250 247 245 242 240 237 234 232 230 229 227 226 226 225 224 225 225 224 221 218 215 213 211 211 211 210 208 206 205 204 203 205 206 204 201 197 197 197 197 196 195 194 195 196 197 198 200 202 203 204 204 204 205 205 206 207 208 209 210 213 215
292 286 280 274 271 267 263 258 254 251 248 246 243 240 236 233 230 228 226 226 225 224 224 224 224 223 222 220 216 213 212 212 210 209 207 206 205 204 204 205 205 203 201 201 202 202 202 201 199 197 195 195 196 198 200 203 204 204 204 204 204 205 206 208 210 211 212 214 215
298 291 282 275 270 266 263 260 258 255 252 249 245 242 238 234 231 228 226 226 225 224 223 222 222 222 222 220 217 214 212 211 210 209 208 207 206 205 206 206 204 201 201 203 205 206 206 206 204 201 197 194 196 198 199 201 202 204 205 206 206 206 207 209 211 213 214 215 216
300 295 289 282 275 268 265 263 261 259 256 252 247 243 238 234 232 230 228 226 224 222 220 220 219 219 219 219 215 213 211 210 210 209 209 208 208 207 207 207 204 202 202 205 208 209 210 210 209 205 200 194 195 197 199 200 200 202 204 206 208 209 210 211 213 214 216 216 216
292 291 288 284 277 272 268 265 263 262 260 257 253 247 240 235 232 230 228 226 223 220 218 216 214 214 215 215 213 212 211 211 211 210 210 211 211 210 209 209 208 206 206 207 209 211 213 214 213 209 204 196 194 194 197 199 200 202 204 206 208 210 211 211 213 215 217 218 217
284 283 281 278 275 272 269 266 264 264 263 262 258 252 245 238 233 229 226 224 221 218 215 212 211 212 213 214 212 211 211 212 212 212 212 212 212 212 212 211 210 209 209 209 211 213 215 216 215 212 207 199 194 192 196 199 200 202 204 206 208 209 211 212 214 216 218 219 218
277 275 273 272 271 269 267 266 266 265 265 264 260 256 250 242 236 230 226 223 220 218 215 212 213 214 214 213 212 212 213 213 212 213 213 213 214 214 214 214 213 212 211 211 213 215 217 217 216 214 210 202 195 192 193 198 200 202 204 205 207 208 210 213 214 216 217 219 219
272 270 269 268 267 266 266 266 266 266 265 263 261 257 253 247 240 234 229 224 221 218 215 213 214 215 216 215 215 215 214 213 213 213 213 214 215 216 216 217 215 214 214 214 216 217 218 218 217 216 212 206 198 192 191 196 200 202 205 206 207 208 209 211 214 216 217 218 218
272 269 266 265 265 264 265 265 265 265 263 262 260 258 254 250 245 239 232 226 222 218 216 216 216 217 217 217 217 217 217 216 215 214 214 215 216 216 217 218 217 216 215 216 217 218 219 219 218 217 215 209 201 193 189 193 197 201 204 207 208 209 210 212 215 216 216 216 217
276 272 267 264 264 264 264 264 263 263 262 260 258 256 254 251 247 241 234 228 224 221 220 219 219 219 219 219 220 220 219 218 216 215 214 214 215 217 218 218 219 217 216 217 218 219 220 220 219 218 217 213 205 195 187 190 195 199 204 207 208 209 210 212 214 215 216 215 215
277 273 270 267 265 264 264 264 264 263 261 259 257 254 251 248 245 241 237 232 228 226 224 223 222 223 223 222 222 222 221 221 218 216 214 214 215 217 219 219 220 218 217 217 219 220 220 220 219 219 218 216 208 195 186 188 194 199 203 206 208 209 210 211 212 214 215 215 216
287 283 278 274 270 268 267 267 266 265 262 259 256 253 250 247 244 241 238 234 231 230 228 226 225 225 224 224 223 223 223 222 221 218 216 214 215 217 219 220 220 219 218 218 219 220 220 221 220 219 218 217 210 195 186 187 194 200 203 206 208 210 210 210 211 212 213 214 216
304 300 295 290 284 279 275 272 270 267 265 261 257 252 249 246 244 241 238 234 233 232 231 228 226 225 224 223 223 223 223 222 222 221 219 216 216 217 219 220 220 220 219 219 219 220 220 221 220 219 218 217 212 200 190 188 194 199 203 206 209 210 211 211 211 212 213 213 215
308 305 302 299 295 290 285 279 274 271 267 264 260 255 250 245 243 240 236 232 232 232 232 230 228 226 224 222 223 224 223 223 222 222 221 219 217 217 218 220 220 219 219 218 219 220 220 221 221 219 217 216 213 207 199 194 196 198 201 205 208 210 211 213 213 213 213 213 215
307 305 303 301 299 296 293 287 281 275 271 267 263 258 253 247 243 238 233 230 230 231 232 232 229 227 225 222 223 224 224 223 223 223 223 222 220 218 217 219 219 218 217 217 219 220 221 221 221 220 218 216 213 210 207 203 201 201 201 203 206 209 211 214 215 216 216 215 218
306 305 303 301 300 299 296 293 287 282 276 270 266 261 256 250 245 240 234 230 229 230 231 232 231 229 226 223 224 225 225 224 223 223 224 224 222 220 219 218 218 217 217 217 218 220 221 221 221 220 218 216 212 210 210 209 206 204 203 203 205 208 212 214 216 218 219 219 221
306 305 303 301 300 300 298 296 292 287 281 274 269 264 258 252 247 241 235 231 229 228 229 231 231 229 227 224 224 225 225 225 223 223 223 223 223 222 220 219 218 217 216 216 217 219 220 221 221 220 218 216 211 209 209 209 207 206 204 204 205 208 212 214 216 218 220 220 222